カタログに戻る

MUSAT2

運用中気象SSO
NORAD 59099·PAYLOAD·🇺🇸 United States

打ち上げ Mar 4, 2024 から Vandenberg Space Force Base

Loading…

次のパス (今後24時間)

TLE

最新Source: Space-Track

元期: Sep 14, 2026, 08:56 UTC

1 59099U 24043B   26257.37235615  .00004494  00000-0  28414-3 0  9992
2 59099  97.8730  38.2368 0007732  40.4533 319.7269 15.09543327138543

AllMySatでMUSAT2をリアルタイム追跡

Download on the App Store